Theta_e
322 321 322 322 322 321 322 321 322 322 322 323 323 322 323 323 321 322 317 317 322 335 330 318 319 319 319 319 319 321 314 311 312 313 316 325 322 329 332 327 325 328 328 331 341
321 321 321 321 322 321 321 321 321 322 322 322 322 322 322 322 320 318 323 332 336 339 319 317 317 318 319 317 320 316 314 312 315 318 318 322 323 326 325 325 326 328 332 337 341
320 320 321 321 322 321 321 321 321 321 322 322 321 321 322 324 319 317 337 339 336 332 320 319 319 319 317 317 316 315 313 315 315 317 320 321 323 326 324 322 326 325 329 334 337
319 320 320 320 320 321 320 320 320 320 321 320 321 321 322 321 307 320 340 338 337 324 319 317 316 316 316 313 315 311 315 315 315 318 320 321 325 322 324 326 329 330 331 333 334
318 318 318 319 319 320 320 320 319 319 319 319 321 322 318 313 314 325 338 334 322 320 318 316 316 318 315 315 314 313 316 318 321 318 322 324 322 322 322 327 330 332 332 333 336
317 317 317 318 318 318 318 318 318 318 318 319 322 321 313 309 321 327 320 320 320 319 317 318 318 319 316 315 314 316 320 322 323 323 324 322 322 323 325 330 330 332 332 335 338
316 316 317 317 317 318 318 317 317 318 318 320 322 319 309 313 321 325 319 316 319 318 316 318 320 317 318 315 318 318 316 320 322 323 322 323 319 321 327 331 331 332 334 335 335
316 316 316 317 317 318 318 318 317 318 319 321 322 317 311 319 322 321 324 319 317 318 317 318 319 318 318 319 318 316 316 311 320 321 321 321 315 324 330 330 330 331 333 334 335
316 316 316 316 317 317 317 317 318 318 320 321 319 314 313 319 319 323 325 320 319 319 319 317 319 319 318 315 313 314 308 309 314 321 320 320 317 324 329 328 328 330 333 334 335
315 315 315 315 316 316 315 316 317 317 320 321 317 313 317 315 319 320 325 322 318 318 317 318 319 317 316 313 305 307 308 311 312 318 321 318 318 322 326 326 326 329 331 333 335
314 314 314 315 315 315 314 313 312 314 313 311 313 312 314 319 321 319 322 321 320 319 315 317 315 311 313 314 313 312 310 312 315 317 318 316 316 320 325 325 325 327 331 333 334
314 313 314 315 315 315 316 310 309 310 309 312 312 312 315 317 314 318 322 317 318 313 315 314 311 314 316 314 312 311 311 312 314 317 317 315 314 320 324 325 327 328 330 331 335
313 312 313 314 315 315 311 311 315 314 310 311 314 314 316 317 315 316 319 318 315 312 312 311 312 314 314 313 312 311 310 312 311 314 317 314 311 315 322 326 329 331 333 334 335
313 312 312 314 309 315 312 314 315 316 308 309 313 316 315 317 314 319 320 317 315 311 313 313 314 313 314 311 313 308 313 313 312 311 306 313 302 311 317 320 323 327 329 332 333
312 312 313 311 314 312 313 316 315 316 297 311 312 320 317 314 316 315 319 318 313 312 313 310 313 312 311 312 315 311 314 314 313 311 310 309 305 310 315 315 319 323 326 328 327
311 311 313 313 317 314 315 316 314 307 296 307 313 311 311 313 314 315 315 319 319 315 317 315 319 317 315 315 315 316 315 314 314 312 302 308 307 307 311 314 318 322 323 325 325
311 312 313 316 312 317 317 316 306 300 310 306 307 310 310 309 311 313 312 311 310 309 310 314 314 318 318 313 316 315 312 303 301 301 301 309 306 310 315 318 320 320 322 324 324
311 311 314 318 319 318 318 312 300 305 305 310 309 309 307 309 310 310 310 308 312 314 310 307 305 314 317 315 312 311 311 304 297 298 303 309 304 310 318 321 322 322 323 323 322
309 320 318 321 318 318 315 304 306 307 310 308 308 306 306 308 309 310 310 309 312 316 309 307 307 316 317 318 316 312 310 314 307 308 303 306 310 314 318 319 319 319 321 321 321
320 318 316 321 320 314 312 301 308 310 312 311 304 307 304 306 307 308 308 310 310 314 321 315 307 314 316 317 318 316 315 307 309 298 296 303 304 307 313 316 317 318 319 320 321
320 312 319 319 321 314 306 307 308 313 313 310 307 306 308 306 308 308 307 311 315 315 320 318 313 312 315 313 311 313 312 311 311 307 299 298 303 315 316 318 317 318 319 321 321
319 307 318 322 313 313 308 309 305 311 314 312 314 311 309 309 307 307 307 312 319 319 314 321 316 309 310 316 318 315 312 311 305 303 308 305 305 317 319 320 320 319 320 321 321
314 317 320 322 306 307 311 309 310 310 312 312 313 315 317 311 308 310 313 318 320 320 319 322 316 306 309 313 316 312 313 314 313 312 304 300 306 319 320 319 320 319 319 320 321
315 307 311 317 317 312 309 307 307 313 311 314 315 317 317 313 317 312 314 317 320 319 318 324 317 309 303 305 310 308 311 312 312 307 305 307 307 315 317 318 319 320 320 319 320
321 314 315 307 310 312 312 309 307 308 312 313 317 316 316 312 313 313 316 317 318 315 319 324 312 312 310 311 311 310 309 310 309 310 306 309 308 314 318 319 320 322 320 319 318
317 316 317 316 314 312 308 309 308 310 310 311 315 316 318 315 315 313 316 317 316 320 319 323 314 314 309 312 311 308 310 310 310 311 311 311 311 318 321 322 320 320 318 318 316
320 322 320 310 314 310 309 309 310 315 313 315 319 319 318 319 322 323 324 325 323 320 321 319 317 313 305 310 309 304 309 310 311 314 313 309 315 319 318 319 320 319 318 317 316
Wind_Speed
8 9 8 8 9 7 9 8 11 12 11 13 14 15 14 13 18 8 2 5 2 1 6 7 10 9 8 4 4 4 7 7 8 6 10 7 5 2 2 4 3 5 7 9 15
9 9 9 9 9 8 9 8 10 12 12 13 14 16 15 13 11 5 5 2 2 6 9 11 11 9 7 3 3 8 5 10 6 6 8 5 1 7 4 4 5 8 8 13 15
9 10 10 9 10 9 9 10 10 12 12 13 15 17 16 14 9 5 5 4 6 7 6 4 3 8 9 4 2 1 6 7 4 7 5 2 2 3 1 1 8 5 12 14 14
9 10 10 9 10 9 9 10 11 13 12 13 15 18 18 7 1 4 7 4 3 9 7 5 6 9 7 4 1 8 3 6 5 5 3 1 5 3 5 8 6 6 14 13 12
10 11 10 9 10 10 9 10 11 12 12 12 14 17 11 7 2 5 4 7 8 9 9 6 7 4 7 2 3 5 5 4 2 2 3 3 7 7 14 10 2 10 12 12 10
9 10 10 10 10 10 9 10 10 11 10 11 13 17 7 4 4 3 4 6 6 9 6 5 2 6 5 3 6 4 6 8 6 5 6 4 10 10 15 6 8 10 12 12 10
10 9 10 10 10 10 9 10 10 11 10 11 11 7 6 4 1 3 6 4 6 6 6 3 3 5 1 5 0 6 9 11 7 5 7 1 17 14 8 10 13 13 12 13 10
11 9 10 10 10 10 9 9 10 10 10 10 6 6 6 2 3 7 7 6 5 5 5 3 5 6 6 1 6 7 4 11 12 4 4 5 18 15 10 11 13 11 11 11 10
10 10 10 10 10 9 9 10 12 8 7 7 6 4 2 5 5 2 9 4 8 7 6 3 7 4 7 12 11 4 9 7 10 10 4 9 13 10 6 11 12 11 11 10 11
9 9 9 10 9 9 9 8 4 7 6 6 5 6 4 2 2 1 5 6 5 9 8 8 8 10 8 8 6 5 7 7 8 8 16 18 16 12 8 11 13 14 9 9 10
9 8 8 8 7 7 9 5 7 7 7 5 3 6 3 8 3 7 7 9 8 11 7 5 8 9 7 7 6 3 4 11 10 4 13 14 16 12 12 12 13 13 12 12 12
10 9 8 7 6 5 7 4 3 6 2 6 10 7 9 4 4 7 7 8 10 8 6 9 8 6 6 6 6 5 7 9 7 10 12 14 17 14 14 14 12 13 13 13 13
9 7 6 6 4 4 5 0 4 6 5 3 4 4 0 7 4 8 6 4 6 6 3 6 9 5 9 8 7 4 7 10 12 8 12 16 15 12 14 14 14 13 12 12 12
8 6 5 3 3 0 4 2 8 7 6 8 7 5 6 4 6 1 2 4 5 4 4 6 3 10 10 8 10 6 4 5 14 16 10 7 7 9 12 13 12 12 12 11 11
8 5 4 7 3 4 4 5 3 5 6 10 7 4 4 9 9 5 2 4 4 5 6 5 12 7 7 6 6 8 2 10 14 7 8 6 3 11 8 9 10 11 12 11 12
9 4 7 6 4 2 6 1 5 7 3 8 8 10 12 9 7 7 3 4 2 6 10 10 5 7 7 5 4 4 7 8 9 8 9 4 7 8 7 6 8 9 11 9 11
5 6 7 4 2 1 1 4 6 5 4 8 12 12 14 11 10 11 10 9 7 11 13 12 8 7 4 5 8 6 6 7 6 7 6 5 7 10 9 6 5 7 8 8 7
1 7 6 5 3 4 4 7 4 4 3 2 7 13 10 11 14 8 10 9 2 11 11 9 12 3 3 5 7 3 6 7 10 6 6 5 1 10 7 6 6 7 6 6 6
4 4 4 2 8 5 7 6 2 3 2 2 10 15 8 9 9 12 12 8 5 6 6 5 7 7 7 7 4 4 3 5 7 4 9 6 7 8 9 9 6 6 6 6 6
4 3 3 2 6 5 7 1 2 1 3 3 13 10 12 13 13 13 11 3 6 1 4 3 6 2 5 3 7 5 3 5 5 4 5 7 5 9 12 12 8 6 5 5 3
5 4 6 4 7 6 9 5 1 2 3 5 7 7 8 10 12 12 10 6 3 6 1 6 4 8 5 2 7 3 4 1 5 5 7 5 8 6 8 11 8 5 4 5 1
3 4 4 4 7 4 9 4 2 3 2 4 4 3 10 6 7 7 8 2 2 8 8 3 2 2 7 5 3 3 4 4 7 4 3 5 5 5 7 10 6 5 6 5 3
2 2 4 4 7 9 4 6 3 4 2 3 6 2 3 5 5 3 5 3 4 5 6 7 3 5 9 8 5 4 3 1 1 4 3 9 7 7 9 9 7 6 7 6 1
3 5 5 5 3 6 9 8 5 3 3 3 3 4 7 6 1 7 7 4 3 3 4 2 3 4 7 6 3 4 4 2 5 7 7 2 3 11 11 9 8 7 7 3 3
3 1 3 9 8 7 6 2 6 3 4 3 6 7 7 6 7 7 7 10 6 6 2 1 4 2 3 3 2 1 2 3 7 6 6 8 4 7 9 9 9 8 6 3 4
3 3 5 3 4 8 5 7 4 1 2 4 5 8 6 7 5 12 10 10 8 6 3 1 4 5 4 3 4 4 1 1 1 1 2 4 3 3 7 10 9 9 6 2 5
2 1 6 6 7 8 6 3 2 3 2 1 3 7 8 6 4 8 4 5 7 10 7 4 7 6 3 3 5 8 2 0 2 0 4 7 8 5 9 10 9 7 4 4 5
Wind_Direction
311 306 303 306 308 324 317 338 325 319 327 319 319 317 315 317 300 218 252 39 71 263 189 192 202 200 220 243 257 281 250 82 64 15 85 110 105 113 109 118 85 85 52 103 132
301 298 301 303 305 318 316 326 320 317 322 319 320 316 311 316 290 231 81 49 243 220 207 193 193 194 214 222 223 268 286 55 356 340 6 89 53 122 194 141 150 127 103 128 143
294 294 298 300 304 313 315 316 315 316 318 323 319 313 307 304 264 82 43 248 236 236 274 246 236 225 242 247 181 14 325 23 41 339 313 24 158 169 210 19 39 136 135 149 155
288 292 298 300 302 306 309 308 313 313 316 325 317 310 309 260 306 76 25 63 182 242 227 199 214 220 258 259 176 272 10 9 10 353 280 215 82 111 352 40 26 100 139 148 153
291 291 293 295 297 296 304 301 307 307 315 321 314 311 306 250 41 80 132 130 165 197 209 197 214 266 264 316 222 239 26 65 5 215 258 73 63 72 41 348 103 116 135 134 129
286 290 292 293 296 293 295 294 299 302 311 314 311 307 287 241 85 111 137 161 202 204 184 203 333 347 291 272 267 90 67 69 70 97 71 23 71 12 6 30 97 124 111 110 105
300 300 295 291 283 286 289 291 295 294 307 303 306 296 273 336 258 144 174 193 198 204 184 216 285 269 358 184 197 159 152 97 58 64 70 228 58 25 40 82 96 103 113 101 101
301 296 284 285 282 288 287 293 287 289 297 286 282 262 270 129 248 244 208 193 193 234 274 259 249 280 247 109 194 172 233 91 47 5 47 276 58 52 67 91 99 111 117 102 104
298 295 288 286 290 289 294 294 277 293 264 261 245 275 164 135 209 101 187 183 180 218 224 226 240 277 185 209 164 223 75 83 78 31 22 24 72 67 88 103 104 117 109 110 103
299 294 293 297 290 292 292 270 340 265 215 216 260 232 215 72 354 284 186 199 185 159 167 218 222 228 190 242 62 68 122 82 67 50 89 95 89 71 65 73 67 76 95 97 80
309 301 286 270 281 296 298 216 211 183 215 301 22 315 327 329 219 191 181 190 194 218 177 185 250 43 60 49 77 75 89 101 113 98 87 92 85 74 59 48 60 74 85 81 82
320 313 301 293 291 302 272 272 25 358 264 227 264 271 268 277 198 159 178 211 208 129 170 198 89 79 120 133 122 99 115 107 100 109 115 102 83 73 60 59 54 69 71 74 81
320 309 290 277 286 256 272 149 338 250 257 163 238 267 90 213 161 142 214 182 187 157 63 355 66 136 160 170 145 62 351 171 135 150 123 126 98 88 85 79 75 70 77 74 59
320 304 274 241 253 163 209 180 306 232 227 145 193 146 184 235 173 69 212 283 195 98 95 55 120 161 188 90 331 82 10 177 152 181 166 239 130 93 101 91 70 68 60 58 55
318 297 241 230 348 232 58 326 288 234 197 146 144 82 164 216 137 142 28 250 197 116 243 86 142 171 90 41 353 36 208 181 186 235 211 169 264 118 136 100 75 65 63 61 61
306 243 189 213 235 299 302 319 233 225 160 154 158 179 177 184 180 124 168 84 40 125 87 108 108 34 61 73 57 131 123 153 207 213 231 103 284 157 127 100 101 78 69 60 66
301 182 204 298 31 106 345 229 198 246 136 161 179 180 182 173 168 186 169 162 184 162 138 138 100 102 23 148 148 232 224 212 196 226 38 111 253 65 119 125 85 72 72 70 67
125 155 191 278 303 292 223 231 205 91 199 106 206 183 184 165 173 174 176 162 189 248 161 166 157 11 15 7 353 26 324 338 318 336 80 150 205 111 118 130 119 86 83 83 59
189 177 236 175 225 260 246 217 76 110 60 224 184 181 162 169 180 179 195 180 144 180 182 181 104 114 55 41 307 79 312 16 291 179 261 82 116 148 155 153 149 105 103 93 62
265 222 143 22 182 238 238 280 143 169 313 198 194 204 174 168 179 198 186 144 162 244 311 101 130 176 111 236 79 350 68 261 206 294 307 124 255 84 177 175 155 147 126 106 63
247 230 70 152 198 217 221 172 249 116 267 212 211 192 185 161 186 191 179 131 209 147 139 155 274 137 201 7 352 173 182 3 298 322 324 300 87 65 164 164 164 140 120 132 105
279 214 109 185 210 212 218 231 16 313 137 234 257 229 186 172 171 173 178 64 139 171 158 82 19 152 59 77 5 5 23 333 322 97 70 286 80 107 124 123 136 130 139 121 41
263 65 156 276 216 197 181 229 276 286 277 217 201 228 180 156 163 181 141 75 161 177 151 174 135 184 173 163 163 262 92 55 63 271 133 310 89 140 138 142 147 144 134 161 26
245 172 152 220 302 256 192 207 221 205 247 229 153 157 152 159 185 171 151 124 121 99 355 101 116 311 353 39 44 173 196 227 300 289 351 358 17 156 170 172 153 150 171 136 49
225 126 15 186 192 217 206 179 206 224 211 230 166 192 167 156 170 173 146 137 137 141 128 256 140 168 100 123 197 215 281 263 289 347 293 17 329 32 163 167 152 156 172 155 51
299 279 180 151 159 195 165 197 222 250 270 150 204 146 163 173 200 182 170 175 166 164 130 27 135 168 150 162 223 226 172 344 21 19 265 323 112 27 113 132 143 168 173 119 54
52 210 281 140 196 212 174 191 194 343 124 1 110 129 125 86 59 66 88 89 144 153 121 148 145 206 147 198 224 237 98 280 134 240 333 325 46 134 149 155 159 150 148 75 61